Showing default

IRIDIUM 142, 43256

Orbit data source: Space-Track

IRIDIUM 142, 43256 is a payload satellite owned by Iridium (US) in LEO that was launched on Fri, 30 Mar 2018 UTC via an FALCON 9 launch vehicle from the Air Force Western Test Range (AFWTR). Payload-class satellites include a variety of spacecraft equipped with specific instruments for various scientific and technological missions. These include communications satellites like Starlink; space stations such as the ISS; scientific satellites like the Hubble; Earth observation satellites from companies like Planet Labs, Umbra, and HawkEye 360; GPS; miniature CubeSats for education and research; and military/defense satellites.

Loading next visibility...
Identifier
43256, 2018-030H
Orbit
LEO
Country
Flag of USUS
Related business
Manufacturer
OATK SSG Gilbert
Mission
Operational Commercial Communications
Bus & Motor
ELITEBUS, Unknown motor
Mass
860 kg wet, 700 kg dry
Launch date (UTC)
2018-03-30 (8 years ago)
Launch vehicle
FALCON 9
Launch site
Air Force Western Test Range (AFWTR)
Object type
Payload
Rocket body
Debris
Shape & HBR
Trap Box + 2 Pan, 4.8 m
Radar Cross Section
10.154 m², Large (>1 m²)

Expand to show TLE details & history
Last TLE update: 16 hours ago

TLE from 16 hours ago
0 IRIDIUM 142
1 43256U 18030H   25353.03754094  .00000108  00000-0  31633-4 0  9991
2 43256  86.3961   5.6649 0002600  93.4192 266.7302 14.34218088404318
Epoch: 2025-12-19T00:54Z
TLE epoch observation values (Epoch: 2025-12-19T00:54:03.537Z)
Latitude
0.00007°
Longitude
-95.73428°
Altitude
780.824 km
Speed
7.463 km/s
True Right ascension
00h 22m 39s
True Declination
0° 00' 00"
Sunlit
Object was in daylight at epoch
Visualization orbit readout
Latitude
Unknown
Longitude
Unknown
Altitude
Unknown
Speed
Unknown
Apparent Right ascension
Unknown
Apparent Declination
Unknown
Sunlit
N/A
Visualization observer readout
Local Sidereal Time
15:23:08
Azimuth
Unknown
Elevation
Unknown
Doppler factor
Unknown
Orbital elements
Apogee altitude
776.49 km
Perigee altitude
772.771 km
Semi-major axis
7,152.768 km
Eccentricity
0.00026
Inclination
86.3961°
RAAN
5.6649°
Arg. of periapsis
93.4192°
True anomaly
266.70046°
Mean anomaly
266.7302°
Eccentric anomaly
266.71533°
Mean motion
3.58783 °/min
Orbital period
100.34 mins
BSTAR
0.000031633
Loading maneuver chart data...
Computing Atmospheric mass density...
Loading historical data...
Loading historical data...
Loading historical data...
Loading historical data...
Loading historical data...
Loading historical data...
Loading historical data...

Documentation

Showing up to 5 results
|